This demonstration page uses our WeatherBlox Daily Observations layout. Learn more.

41.55636, -103.73856

Hourly Observations for February 13, 2019

Temp ( °F °C ) Dew Point ( °F °C ) Humidity (%) Winds ( mph kmh ) Pressure ( in mb ) Visibility ( mi km ) Precip ( " mm )
12:58 am 00:58 Mostly Cloudy 37 3 9 -12.8 31 31 WNW 16 26 30.08 1019 10 16.0934 N/A
1:58 am 01:58 Mostly Cloudy 34 1.2 12 -11.1 40 40 W 10 17 30.12 1020 10 16.0934 N/A
2:58 am 02:58 Cloudy 36 2.2 9 -12.8 32 32 W 13 20 30.08 1019 10 16.0934 N/A
3:58 am 03:58 Cloudy 39 3.8 6 -14.3 26 26 W 21 33 30.01 1016 10 16.0934 N/A
4:58 am 04:58 Mostly Cloudy 39 3.8 5 -14.9 24 24 W 21 33 29.98 1015 10 16.0934 N/A
5:58 am 05:58 Cloudy 36 2.4 8 -13.5 30 30 W 8 13 29.97 1015 10 16.0934 N/A
6:58 am 06:58 Mostly Cloudy 37 2.7 6 -14.2 28 28 SW 12 19 29.94 1014 10 16.0934 N/A
7:58 am 07:58 Mostly Cloudy 33 0.7 9 -12.9 36 36 SW 13 20 29.96 1014 10 16.0934 N/A
8:58 am 08:58 Cloudy 34 0.9 9 -12.8 35 35 SW 10 17 29.92 1013 10 16.0934 N/A
9:58 am 09:58 Cloudy 34 1.3 8 -13.1 34 34 SW 15 24 29.87 1011 10 16.0934 N/A
10:58 am 10:58 Cloudy 37 3 9 -12.7 31 31 WSW 18 30 29.84 1010 10 16.0934 N/A
11:58 am 11:58 Mostly Cloudy 36 2.1 12 -11.1 37 37 WSW 16 26 29.84 1010 10 16.0934 N/A
12:58 pm 12:58 Mostly Cloudy 37 3 11 -11.7 33 33 W 16 26 29.8 1009 10 16.0934 N/A
1:58 pm 13:58 Cloudy 41 4.8 7 -13.8 25 25 W 23 37 29.77 1008 10 16.0934 N/A
2:58 pm 14:58 Mostly Cloudy 42 5.3 7 -14 24 24 W 10 17 29.74 1007 10 16.0934 N/A
3:58 pm 15:58 Mostly Cloudy 45 7 3 -16 18 18 W 25 41 29.71 1006 10 16.0934 N/A
4:58 pm 16:58 Partly Cloudy 47 8.1 6 -14.3 19 19 WSW 16 26 29.66 1004 10 16.0934 N/A
5:58 pm 17:58 Sunny 47 8.3 10 -12.4 22 22 SSW 16 26 29.65 1004 10 16.0934 N/A
6:58 pm 18:58 Sunny 51 10.5 8 -13.4 17 17 SW 20 31 29.56 1001 10 16.0934 N/A
7:58 pm 19:58 Mostly Cloudy 53 11.7 6 -14.7 14 14 SW 14 22 29.54 1000 10 16.0934 N/A
8:58 pm 20:58 Partly Cloudy 53 11.7 9 -13 17 17 WSW 9 15 29.5 999 10 16.0934 N/A
9:58 pm 21:58 Cloudy 51 10.3 17 -8.6 26 26 W 20 31 29.52 1000 10 16.0934 N/A
10:58 pm 22:58 Mostly Cloudy 48 8.9 20 -6.6 33 33 W 33 54 29.52 1000 10 16.0934 N/A

Powered by AerisWeather